星链-30475 (STARLINK-30475 )

导读

STARLINK-30475是美国SpaceX公司星链(Starlink)低轨互联网星座的一颗卫星,于2023年9月24日由美国发射升空。它属于星链星座扩容卫星,旨在为全球提供高速宽带互联网服务,尤其覆盖偏远欠发达地区。作为低轨卫星,它采用成熟的霍尔推进技术,具备自主避撞能力,寿命结束后会主动离轨坠入大气层焚毁,减少空间垃圾影响,是星链全球通信网络建设的组成部分。

基本信息
目录编号:
57929
目录名称:
STARLINK-30475
国际标识:
2023-147S
轨道中心:
EARTH
卫星名称:
星链-30475
卫星全名:
星链-30475 (STARLINK-30475 )
卫星状态:
已陨落 最后检测时间 2025-03-26
发射日期:
2023-09-24 UTC
国别 :
美国 (US)
星等 :
--
该卫星已列入 空间交会检测服务 Space Conjunction Data Service (SCDS) ,当前飞行风险评估等级: 无高风险
轨道信息
数据来源 国际轨道数据
星历时间: 2025-03-26T01:17:27+0800
轨道信息已过期535天
半长轴: 6576.741km
偏心率: 0.001521
轨道倾角: 42.977°
近地点辐角 241.178°
升交点赤经 334.999°
平近点角 177.651°
近地点: 188.602km
远地点: 208.61km
周期: 88.466分钟
每日圈数: 16.277463
详细信息
固有亮度:
5
最大亮度:
0.3
卫星平台:
Starlink v2.0 mini
覆盖范围:
全球
运营商:
太空探索技术公司
运营商所在国:
美国
制造商(研发单位):
太空探索技术公司
制造商所在国:
美国
使用方式:
暂无
卫星简介
星链(Starlink)计划是由太空探索技术公司(SpaceX)提出的一个巨型低轨卫星互联网星座项目,计划在2019年至2024年间在太空搭建由约1.2万颗卫星组成的“星链”网络,其中1584颗将部署在地球上空550千米处的近地轨道,并从2020年开始工作。该卫星仍在工作。
与全量物体交会距离演化趋势
与全量物体交会风险概率演化趋势